This is the latest recevied weather packets stored in our database for station/object IZ5MMH-4. If no packets are shown the sender has not sent any weather packets the latest 10 day(s).
| Time | Temp. | Humidity | Pressure | Rain* | Wind** | Luminosity | Snow |
|---|---|---|---|---|---|---|---|
| 1788093263 | 30.56° C | 58% | 1016.3 hPa | - | - | - | - |
| 1788092663 | 30.56° C | 58% | 1016.2 hPa | - | - | - | - |
| 1788092063 | 30° C | 59% | 1016.2 hPa | - | - | - | - |
| 1788091462 | 30° C | 60% | 1016.4 hPa | - | - | - | - |
| 1788090863 | 30° C | 61% | 1016.3 hPa | - | - | - | - |
| 1788090263 | 30° C | 64% | 1016.4 hPa | - | - | - | - |
| 1788089662 | 30° C | 63% | 1016.3 hPa | - | - | - | - |
| 1788089063 | 29.44° C | 66% | 1016.4 hPa | - | - | - | - |
| 1788088462 | 29.44° C | 65% | 1016.5 hPa | - | - | - | - |
| 1788087866 | 29.44° C | 65% | 1016.5 hPa | - | - | - | - |
| 1788087263 | 28.89° C | 64% | 1016.5 hPa | - | - | - | - |
| 1788086663 | 28.89° C | 65% | 1016.6 hPa | - | - | - | - |
| 1788086063 | 28.89° C | 65% | 1016.6 hPa | - | - | - | - |
| 1788085463 | 28.89° C | 65% | 1016.7 hPa | - | - | - | - |
| 1788084863 | 28.89° C | 65% | 1016.7 hPa | - | - | - | - |
| 1788084263 | 28.89° C | 64% | 1016.6 hPa | - | - | - | - |
| 1788083663 | 28.89° C | 63% | 1016.6 hPa | - | - | - | - |
| 1788083063 | 28.89° C | 64% | 1016.8 hPa | - | - | - | - |
| 1788082463 | 28.33° C | 64% | 1016.8 hPa | - | - | - | - |
| 1788081863 | 28.33° C | 64% | 1016.7 hPa | - | - | - | - |
| 1788081263 | 28.33° C | 63% | 1016.7 hPa | - | - | - | - |
| 1788080663 | 28.33° C | 60% | 1016.7 hPa | - | - | - | - |
| 1788080063 | 28.33° C | 62% | 1016.7 hPa | - | - | - | - |
| 1788079463 | 27.78° C | 61% | 1016.7 hPa | - | - | - | - |
| 1788078863 | 27.78° C | 61% | 1016.5 hPa | - | - | - | - |
* Rain since midnight (hover to see other rain measurements)
** Current wind speed in m/s (hover to see current wind gust speed)